Theta_e
329 330 330 329 328 332 335 333 331 329 329 325 326 326 322 320 319 317 314 312 311 311 310 310 311 310 309 308 307 305 304 303 303 302 302 302 302 302 301 301 301 301 303
331 331 332 332 332 333 335 333 331 327 327 327 326 321 321 320 318 315 312 312 311 311 310 309 309 308 307 305 303 303 302 303 303 301 301 301 300 300 300 299 298 298 298
330 331 333 333 333 333 333 331 328 327 326 325 322 321 321 319 315 314 312 312 311 309 308 308 306 304 304 303 302 301 302 302 302 300 300 300 300 299 298 298 297 297 296
330 331 333 334 332 331 330 329 329 328 324 322 321 320 317 316 315 313 312 311 310 309 306 303 302 301 300 300 301 302 302 301 301 300 299 299 298 296 296 295 294 294 294
329 331 332 332 332 331 330 327 324 323 321 318 318 318 316 314 313 311 309 307 305 303 299 298 298 296 295 297 300 301 301 301 299 300 299 297 296 295 294 293 293 293 292
329 331 330 329 327 326 323 322 319 317 317 317 317 316 313 311 309 309 305 306 299 298 298 297 295 295 297 298 300 301 300 300 299 298 298 295 294 294 293 293 292 292 292
329 328 325 323 323 322 320 317 316 316 316 315 315 314 311 306 310 310 303 299 297 297 296 296 295 295 297 299 300 300 299 297 298 297 295 294 294 293 293 293 292 292 291
326 324 321 320 319 319 318 316 316 315 313 311 309 307 309 311 307 301 297 296 296 295 295 295 293 295 298 299 298 297 297 296 296 296 294 294 293 293 292 291 291 291 290
323 321 319 319 319 318 317 316 315 313 310 306 305 309 310 303 299 297 296 296 295 294 295 294 294 295 297 298 296 298 296 296 295 295 294 293 292 292 292 292 291 290 290
322 320 319 319 318 318 316 315 314 311 307 306 308 309 306 301 298 297 298 296 295 294 295 295 295 295 295 297 298 297 296 296 295 295 293 292 292 292 292 291 291 290 289
322 320 319 319 319 317 316 315 313 308 306 306 308 306 301 300 299 299 298 297 296 295 295 295 295 295 295 295 295 293 295 294 294 294 293 292 292 291 290 290 289 289 288
322 321 320 319 318 317 316 314 310 307 306 305 306 302 301 300 299 299 298 297 297 296 295 295 295 295 295 295 295 294 294 293 293 293 292 292 291 291 290 289 288 287 287
323 321 320 319 317 316 315 312 309 308 306 304 303 301 301 300 299 299 298 298 297 296 295 294 295 295 293 293 293 293 293 293 292 292 291 291 290 289 288 287 286 285 284
323 322 321 319 317 316 314 311 308 307 305 303 302 301 300 300 299 299 298 297 297 296 294 294 294 295 294 293 292 292 292 291 291 291 290 289 288 287 286 285 284 283 282
322 322 322 320 318 316 314 311 308 307 305 305 301 300 300 299 299 298 297 296 296 295 295 294 294 294 294 293 292 290 290 290 290 289 289 288 287 286 285 284 283 283 282
318 320 321 321 318 315 314 311 308 307 306 303 300 300 299 299 298 297 295 295 295 295 295 294 294 294 294 294 293 292 288 288 287 288 287 286 285 285 284 283 283 282 281
317 318 319 320 318 315 313 311 308 307 306 302 300 300 299 298 297 295 295 294 294 294 295 294 294 293 293 293 292 290 288 288 287 287 286 285 284 284 284 283 282 280 281
317 317 317 317 316 314 312 310 307 306 304 301 300 298 298 296 294 293 294 294 294 294 294 294 293 293 293 292 292 290 288 287 287 286 285 284 284 283 282 281 279 279 279
315 315 315 316 315 314 312 309 306 304 302 300 298 298 295 295 293 293 293 293 293 294 294 294 293 292 291 291 290 290 288 287 286 285 284 284 284 283 282 280 279 279 279
314 315 315 315 314 313 311 307 304 302 299 299 296 296 294 292 293 293 293 293 293 293 293 293 292 291 291 290 289 288 287 286 286 284 284 283 283 283 282 279 279 279 279
315 315 315 314 313 310 307 303 300 299 297 296 297 294 292 293 293 293 293 292 292 293 293 292 292 291 290 289 288 287 287 285 285 283 282 283 283 282 280 280 279 280 279
314 313 312 308 303 301 301 300 298 295 296 294 293 292 291 292 292 292 291 292 292 293 293 292 292 291 290 289 288 288 287 285 284 283 282 282 281 281 280 280 280 280 279
308 305 304 302 299 299 298 298 297 294 293 293 293 290 290 291 290 290 290 290 291 292 292 292 291 291 290 289 289 288 287 286 284 283 283 282 281 281 281 281 281 281 280
301 300 299 299 298 298 298 295 294 292 293 293 291 290 290 290 290 290 291 290 291 292 292 292 291 290 290 289 288 288 287 286 285 283 283 282 281 282 281 281 281 281 280
299 298 299 298 298 298 298 296 294 293 292 290 290 290 290 290 290 291 291 291 290 289 290 291 291 291 290 289 289 287 286 286 285 284 283 282 282 282 282 281 281 281 280
299 298 299 298 298 296 294 293 292 290 290 290 290 290 290 290 290 291 291 291 290 289 289 289 289 289 289 289 288 287 287 284 284 283 283 282 282 282 282 281 281 281 280
Wind_Speed
17 15 13 14 12 18 19 19 20 17 14 12 8 6 7 10 9 7 5 5 1 4 6 7 9 10 12 15 17 19 19 21 20 21 19 20 22 16 14 12 11 12 14
19 15 14 14 14 15 19 18 18 14 13 11 10 10 10 7 9 7 2 4 3 6 3 12 13 13 17 19 16 20 22 19 16 17 21 20 22 18 17 20 23 19 18
21 17 15 15 16 19 18 15 13 17 15 15 14 15 14 12 9 1 2 6 11 9 10 12 14 18 17 17 19 20 16 17 16 14 15 23 17 24 20 19 21 23 23
20 19 17 21 19 18 15 16 15 15 20 16 13 9 8 13 13 10 8 2 7 7 7 11 14 15 17 20 18 15 19 21 16 16 16 19 20 22 26 16 19 21 20
21 20 21 16 19 20 20 22 22 18 16 13 17 15 10 9 9 6 2 3 9 13 15 14 18 18 18 16 19 16 18 16 17 17 16 16 16 16 20 25 19 21 22
19 20 20 22 22 22 24 23 19 17 17 17 19 19 18 16 10 8 8 13 11 12 12 17 19 16 15 14 15 17 16 16 20 23 21 14 15 17 17 21 24 24 24
22 24 26 24 24 24 24 22 20 19 19 20 21 20 15 10 6 10 7 11 10 10 13 18 16 16 15 13 16 18 19 24 21 11 12 12 15 16 18 18 24 25 26
23 26 25 24 23 22 22 22 22 19 17 17 17 13 7 7 8 6 8 5 9 11 14 15 16 13 13 17 21 22 20 22 16 18 13 16 15 14 15 17 20 27 30
24 25 25 24 23 22 23 24 22 21 19 17 15 9 7 6 7 7 6 7 9 11 12 15 15 14 13 20 19 17 14 15 17 18 15 14 10 15 15 17 20 23 30
24 25 24 23 22 21 22 22 22 23 21 20 12 8 7 6 7 5 7 8 11 13 12 14 15 16 12 16 16 17 15 17 19 17 13 13 16 13 17 18 20 25 29
25 25 25 25 22 21 23 24 24 23 23 20 12 9 9 10 6 7 8 10 13 12 13 14 16 14 14 14 19 23 21 20 20 16 15 15 18 15 19 20 26 25 25
26 26 26 23 22 23 24 25 24 24 22 17 12 12 13 9 10 9 9 11 14 12 14 15 14 13 14 15 13 16 20 17 14 11 14 14 12 19 22 22 22 25 30
24 27 28 25 24 25 26 24 25 23 18 16 15 16 14 12 9 10 12 14 14 14 16 14 13 16 18 18 16 16 15 12 12 11 15 17 18 20 21 27 29 31 29
20 24 27 27 25 25 26 25 25 22 20 19 16 13 14 12 11 12 14 15 15 17 17 14 14 17 13 12 11 11 11 12 13 17 17 18 19 21 25 28 31 26 24
21 22 24 25 25 26 25 26 26 22 22 17 16 15 14 13 13 12 14 17 18 20 13 15 16 18 17 13 13 14 14 17 13 13 16 17 20 24 25 23 24 25 25
11 15 16 18 22 23 26 26 25 24 20 18 19 15 13 12 12 19 18 18 17 17 15 16 17 18 15 17 16 17 14 13 13 15 18 19 16 17 19 19 19 23 27
11 12 14 18 21 23 25 26 25 24 18 19 16 11 11 12 19 15 15 17 17 18 17 17 16 17 18 20 17 14 16 15 13 16 17 17 12 18 21 22 24 24 19
7 9 12 17 20 20 21 23 23 18 20 15 12 12 13 10 15 17 15 16 18 18 18 17 16 17 18 18 17 18 19 16 15 18 17 15 14 20 21 22 25 23 19
6 10 12 15 16 18 19 21 18 14 15 14 9 9 9 20 16 13 15 17 19 19 18 17 16 13 16 17 17 19 20 17 17 17 14 13 18 21 21 24 24 22 21
12 11 12 12 13 15 16 14 16 16 10 8 7 8 14 16 14 15 16 18 19 18 16 16 17 14 17 21 21 22 20 19 18 14 13 13 17 21 23 23 22 23 21
11 9 4 5 9 13 15 14 14 12 8 9 6 9 11 12 16 17 20 19 15 16 17 20 22 22 21 21 21 19 17 20 18 16 13 11 19 22 21 20 19 19 22
7 1 7 9 12 10 14 15 12 5 3 9 7 12 15 16 15 19 17 16 14 15 18 19 19 20 21 21 20 19 18 17 17 17 15 14 16 18 16 15 15 16 18
7 5 8 11 11 12 12 6 3 6 4 8 15 19 18 17 16 17 20 18 10 14 18 17 20 22 18 17 22 18 18 17 18 15 14 13 18 14 14 15 17 17 20
9 9 7 7 6 5 5 7 5 4 7 12 17 18 16 16 17 18 16 17 15 16 14 17 21 22 19 15 14 15 17 18 18 16 15 18 16 11 14 14 14 16 18
10 5 1 4 5 3 2 1 2 8 14 16 16 15 16 16 16 15 16 21 22 18 21 22 19 19 21 20 19 21 21 19 19 20 21 21 11 13 15 13 12 15 17
0 0 3 2 0 2 3 7 12 14 16 15 15 16 16 17 17 15 19 22 25 24 20 19 23 26 27 23 25 25 21 19 24 25 23 20 11 13 15 14 12 15 16
Wind_Direction
175 168 173 172 167 162 178 192 197 209 211 174 171 191 152 122 147 187 176 162 116 334 334 258 269 284 282 294 302 309 301 299 308 310 305 292 297 296 302 302 302 317 305
160 173 177 173 175 173 192 203 208 202 144 144 162 145 153 142 179 228 159 250 266 272 247 287 300 292 296 301 303 295 302 303 293 308 304 315 309 310 286 298 313 313 303
166 175 181 178 176 189 203 227 175 146 139 160 157 161 170 185 202 344 315 275 301 301 311 319 310 308 306 300 301 305 308 296 282 307 303 313 314 315 315 303 301 305 306
173 178 184 184 191 202 195 157 152 154 164 162 169 165 173 174 158 155 196 287 324 305 286 284 285 284 292 298 300 294 286 287 302 292 292 286 305 322 321 317 307 304 314
176 179 182 180 170 162 163 162 164 166 162 170 172 171 177 159 181 185 197 251 264 274 287 286 287 298 301 299 298 294 294 288 280 279 290 305 302 304 311 317 319 310 304
171 171 170 165 165 164 166 167 161 161 163 168 173 181 171 165 181 232 284 293 295 285 291 293 303 311 309 299 298 280 272 275 282 287 287 294 304 309 314 313 312 311 309
166 167 163 166 167 171 171 164 166 165 173 185 190 193 195 204 256 296 297 284 270 284 293 296 309 314 315 303 276 270 278 285 288 279 284 288 284 295 301 308 308 307 306
173 172 171 176 176 175 173 170 174 169 171 178 185 185 208 269 276 270 268 272 284 291 298 299 309 315 307 283 291 284 280 291 289 290 274 271 268 284 299 306 309 309 306
181 179 182 183 183 183 182 180 176 177 180 183 192 209 254 246 245 249 276 271 288 297 289 303 312 304 298 288 310 286 304 307 302 287 267 286 295 271 292 301 302 308 308
187 190 188 190 191 190 191 186 187 187 184 199 205 229 253 236 233 258 267 284 294 299 305 308 307 300 288 299 297 299 300 293 298 285 271 287 284 289 297 297 298 300 302
194 193 198 194 195 196 200 194 194 193 195 207 210 239 205 219 236 243 262 290 287 306 304 302 300 310 314 292 282 295 291 303 302 285 263 268 285 307 298 306 304 304 300
196 195 197 197 200 204 204 200 199 202 203 213 220 215 202 204 224 249 269 274 287 298 300 300 308 307 306 301 296 297 291 285 301 288 287 296 300 290 300 308 296 292 288
199 200 196 199 203 206 207 205 204 208 211 205 221 205 212 217 248 265 274 275 288 291 294 303 302 285 303 298 309 314 307 293 289 291 285 297 307 308 297 288 290 295 299
216 209 195 198 205 209 210 211 211 213 216 221 216 215 223 230 246 261 274 281 285 282 302 300 298 289 291 282 290 271 282 278 284 293 300 304 300 294 294 296 302 307 306
212 223 206 201 203 210 212 213 216 219 217 232 220 225 237 247 261 280 276 275 277 285 298 299 297 289 279 271 261 270 288 282 287 295 294 292 292 294 299 306 312 308 315
273 241 228 218 211 212 217 216 218 221 233 219 225 227 238 245 256 282 282 281 288 288 287 292 293 294 284 281 277 279 298 294 298 288 289 289 298 298 305 305 298 309 309
279 269 240 233 229 224 222 217 220 221 224 222 229 241 247 263 291 302 287 284 284 282 284 292 287 281 280 287 282 282 300 296 295 297 288 290 291 283 286 289 299 308 305
283 272 252 241 235 230 226 221 219 227 218 220 231 237 276 278 288 285 286 291 290 286 283 287 285 276 277 276 282 287 294 295 302 290 295 290 287 284 299 309 311 315 314
308 283 269 246 235 230 225 214 207 222 218 212 245 269 280 300 296 292 291 290 287 285 284 284 282 269 279 282 281 286 288 294 302 300 295 290 290 299 307 313 318 320 323
307 295 276 252 235 221 210 209 199 205 198 223 222 264 307 293 295 286 281 277 278 283 284 277 268 264 267 272 277 283 285 296 301 294 291 285 292 296 308 314 318 321 326
311 305 267 221 195 193 192 181 182 180 203 192 261 304 295 288 284 287 281 286 290 284 276 277 275 277 280 276 281 285 295 303 293 295 294 283 286 298 307 313 320 331 332
334 132 186 165 147 158 172 159 136 118 44 4 312 288 284 282 283 281 302 300 285 278 283 277 273 282 288 284 281 288 292 308 300 297 296 283 297 312 315 319 336 339 339
90 116 147 157 151 154 161 132 92 40 7 285 282 287 286 284 292 297 304 294 284 286 283 277 275 282 282 275 277 285 282 295 302 300 303 305 321 329 336 342 332 326 336
98 151 156 158 157 142 140 105 72 256 270 284 284 291 293 303 304 311 316 311 280 273 274 275 276 275 271 266 271 288 292 288 292 301 300 313 318 321 323 319 322 317 321
149 135 144 148 143 114 12 240 281 279 273 286 296 302 304 306 309 307 294 297 298 296 275 269 271 269 256 251 258 289 293 287 284 287 289 297 306 299 307 311 309 313 315
344 346 156 160 293 28 337 273 276 294 303 301 301 302 306 304 305 307 297 291 301 305 304 291 276 269 269 263 273 280 280 276 266 271 275 284 282 293 301 307 309 309 310